Location: Landeleau
(48.2273°N, 3.7285°W)
Time: 22:50:36
(UTC+00:00)

Cosmos 1992 Rocket - Pass Details

Date: 30 March 2020
Orbit: 759 x 765 km, 74.0° (Epoch: 27 May)

Event Time Altitude Azimuth Distance (km) Brightness Sun altitude
Rises 20:22:43 0° 338° (NNW) 3,233 8.0 -16.6°
Reaches altitude 10° 20:25:06 10° 340° (NNW) 2,302 7.2 -17.0°
Maximum altitude 20:30:20 77° 66° (ENE) 786 3.9 -17.8°
Enters shadow 20:33:03 29° 148° (SSE) 1,372 4.8 -18.2°
